N7MLR Weather Reports


time (UTC)temp
C
wind
direction
speed
KPH
gust
KPH
rain 1hr
cm
rain 24hr
cm
rain mn
cm
humidity
%
barometer
mb
20260507002254 17 195 6.4 8.0 0.00 0.00 0.00 84 1012.1
20260507001751 17 214 3.2 4.8 0.00 0.00 0.00 84 1012.0
20260507001249 17 204 1.6 3.2 0.00 0.00 0.00 83 1012.0
20260507000745 17 184 6.4 9.7 0.00 0.00 0.00 84 1012.1
20260507000241 17 221 3.2 4.8 0.00 0.00 0.00 84 1011.8
20260506235738 17 200 6.4 12.9 0.00 0.00 0.00 84 1011.8
20260506235233 17 184 1.6 3.2 0.00 0.00 0.00 83 1011.6
20260506234730 17 200 3.2 3.2 0.00 0.00 0.00 84 1011.6
20260506234227 17 221 9.7 11.3 0.00 0.00 0.00 84 1011.5
20260506233725 17 198 3.2 4.8 0.00 0.00 0.00 84 1011.4
20260506233221 18 202 8.0 11.3 0.00 0.00 0.00 83 1011.4
20260506232718 18 196 12.9 16.1 0.00 0.00 0.00 82 1010.9
20260506232213 18 208 8.0 11.3 0.00 0.00 0.00 82 1011.2
20260506231710 18 172 4.8 9.7 0.00 0.00 0.00 82 1011.2
20260506231209 18 169 8.0 11.3 0.00 0.00 0.00 82 1011.3
20260506230705 18 165 9.7 11.3 0.00 0.00 0.00 82 1010.9
20260506230202 18 198 9.7 14.5 0.00 0.00 0.00 81 1010.9
20260506225658 18 231 9.7 12.9 0.00 0.00 0.00 80 1011.1
20260506225155 18 205 9.7 12.9 0.00 0.00 0.00 81 1010.8
20260506224652 18 140 4.8 4.8 0.00 0.00 0.00 81 1011.1
20260506224149 19 186 3.2 4.8 0.00 0.00 0.00 80 1011.2
20260506223645 19 149 3.2 4.8 0.00 0.00 0.00 80 1011.1
20260506223141 18 200 0.0 1.6 0.00 0.00 0.00 81 1010.9
20260506222638 19 167 11.3 16.1 0.00 0.00 0.00 80 1011.2
20260506222134 18 135 4.8 4.8 0.00 0.00 0.00 81 1010.6
20260506221632 18 201 6.4 9.7 0.00 0.00 0.00 81 1010.9
20260506221130 19 195 11.3 14.5 0.00 0.00 0.00 80 1010.8
20260506220626 20 167 11.3 17.7 0.00 0.00 0.00 79 1010.8
20260506220121 20 179 8.0 9.7 0.00 0.00 0.00 79 1010.5
20260506215618 20 194 6.4 9.7 0.00 0.00 0.00 77 1010.9
20260506215113 21 234 11.3 22.5 0.00 0.00 0.00 75 1010.4
20260506214611 21 192 8.0 12.9 0.00 0.00 0.00 76 1010.6
20260506214108 21 146 6.4 9.7 0.00 0.00 0.00 78 1010.7
20260506213606 22 234 8.0 11.3 0.00 0.00 0.00 76 1010.5
20260506213103 22 195 8.0 14.5 0.00 0.00 0.00 75 1010.5
20260506212600 22 180 3.2 9.7 0.00 0.00 0.00 74 1010.5
20260506212055 22 198 8.0 11.3 0.00 0.00 0.00 74 1010.6
20260506211551 22 150 4.8 9.7 0.00 0.00 0.00 76 1010.4
20260506211048 22 137 12.9 16.1 0.00 0.00 0.00 74 1010.3
20260506210545 23 218 8.0 12.9 0.00 0.00 0.00 74 1010.6
20260506210041 23 159 8.0 16.1 0.00 0.00 0.00 75 1010.4
20260506205538 23 190 4.8 8.0 0.00 0.00 0.00 75 1010.4
20260506205033 22 212 12.9 25.7 0.00 0.00 0.00 76 1010.5
20260506204532 23 191 8.0 11.3 0.00 0.00 0.00 74 1010.5
20260506204028 23 197 3.2 8.0 0.00 0.00 0.00 75 1010.3
20260506203527 23 136 16.1 22.5 0.00 0.00 0.00 74 1010.6
20260506203023 23 155 12.9 20.9 0.00 0.00 0.00 75 1010.2
20260506202520 23 211 6.4 8.0 0.00 0.00 0.00 76 1010.3
20260506202016 24 192 4.8 8.0 0.00 0.00 0.00 74 1010.3
20260506201514 23 196 6.4 11.3 0.00 0.00 0.00 77 1010.3
20260506201011 22 167 8.0 11.3 0.00 0.00 0.00 80 1010.4
20260506200507 22 192 4.8 4.8 0.00 0.00 0.00 81 1010.7
20260506200004 22 191 8.0 11.3 0.00 0.00 0.00 81 1010.8
20260506195501 22 179 11.3 12.9 0.00 0.00 0.00 81 1010.8
20260506194956 23 207 3.2 3.2 0.00 0.00 0.00 81 1010.5
20260506194454 23 188 9.7 14.5 0.00 0.00 0.00 78 1010.5
20260506193951 26 203 6.4 8.0 0.00 0.00 0.00 76 1010.4
20260506193448 27 208 4.8 4.8 0.00 0.00 0.00 75 1010.2
20260506192945 27 198 1.6 1.6 0.00 0.00 0.00 74 1010.2
20260506192442 27 229 3.2 3.2 0.00 0.00 0.00 74 1009.9
20260506191938 27 214 1.6 1.6 0.00 0.00 0.00 74 1010.2
20260506191435 27 221 1.6 1.6 0.00 0.00 0.00 74 1010.1
20260506190931 27 234 1.6 1.6 0.00 0.00 0.00 73 1010.2
20260506190428 27 217 0.0 1.6 0.00 0.00 0.00 74 1010.4
20260506185925 27 214 0.0 0.0 0.00 0.00 0.00 73 1010.4
20260506185422 27 219 1.6 1.6 0.00 0.00 0.00 71 1010.2
20260506184919 28 232 3.2 3.2 0.00 0.00 0.00 71 1010.5
20260506184416 28 222 1.6 1.6 0.00 0.00 0.00 71 1010.5
20260506183914 28 195 1.6 1.6 0.00 0.00 0.00 71 1010.5
20260506183409 28 217 3.2 3.2 0.00 0.00 0.00 71 1010.4
20260506182906 28 215 1.6 4.8 0.00 0.00 0.00 71 1010.5
20260506182403 28 204 4.8 8.0 0.00 0.00 0.00 70 1010.3
20260506181900 28 230 1.6 3.2 0.00 0.00 0.00 71 1010.5
20260506181358 28 218 1.6 1.6 0.00 0.00 0.00 71 1010.8
20260506180855 28 193 1.6 3.2 0.00 0.00 0.00 71 1010.7
20260506180351 28 202 1.6 1.6 0.00 0.00 0.00 70 1010.8
20260506175848 28 220 1.6 1.6 0.00 0.00 0.00 72 1010.6
20260506175345 28 196 1.6 1.6 0.00 0.00 0.00 70 1010.8
20260506174842 27 218 1.6 1.6 0.00 0.00 0.00 73 1010.7
20260506174339 26 203 1.6 3.2 0.00 0.00 0.00 75 1011.2
20260506173837 26 213 1.6 1.6 0.00 0.00 0.00 75 1010.7
20260506173333 25 202 6.4 8.0 0.00 0.00 0.00 76 1010.9
20260506172830 25 200 1.6 1.6 0.00 0.00 0.00 78 1011.2
20260506172327 24 193 1.6 1.6 0.00 0.00 0.00 79 1011.2
20260506171825 23 221 6.4 8.0 0.00 0.00 0.00 80 1011.3
20260506171321 23 195 1.6 3.2 0.00 0.00 0.00 82 1011.2
20260506170819 22 233 1.6 3.2 0.00 0.00 0.00 83 1011.3
20260506170315 22 208 1.6 1.6 0.00 0.00 0.00 84 1011.4
20260506165814 22 206 3.2 3.2 0.00 0.00 0.00 84 1011.4
20260506165311 21 194 4.8 8.0 0.00 0.00 0.00 85 1011.3
20260506164807 21 204 4.8 4.8 0.00 0.00 0.00 85 1011.5
20260506164304 21 213 8.0 12.9 0.00 0.00 0.00 85 1011.3
20260506163801 21 191 4.8 8.0 0.00 0.00 0.00 85 1011.3
20260506163256 21 175 4.8 8.0 0.00 0.00 0.00 86 1011.3
20260506162752 22 216 9.7 11.3 0.00 0.00 0.00 85 1011.4
20260506162250 25 196 3.2 4.8 0.00 0.00 0.00 86 1011.3
20260506161747 25 223 3.2 3.2 0.00 0.00 0.00 85 1011.1
20260506161245 25 217 4.8 8.0 0.00 0.00 0.00 85 1011.1
20260506160742 25 209 3.2 3.2 0.00 0.00 0.00 85 1011.2
20260506160238 25 189 0.0 1.6 0.00 0.00 0.00 85 1011.1
20260506155737 25 213 1.6 1.6 0.00 0.00 0.00 85 1011.2
20260506155233 25 198 1.6 1.6 0.00 0.00 0.00 86 1011.2
20260506153341 25 240 0.0 0.0 0.00 0.00 0.00 88 1011.2
20260506152838 25 241 0.0 0.0 0.00 0.00 0.00 89 1011.1
20260506152335 24 241 0.0 0.0 0.00 0.00 0.00 89 1010.6
20260506151834 24 241 1.6 1.6 0.00 0.00 0.00 89 1010.5
20260506151330 25 241 0.0 1.6 0.00 0.00 0.00 89 1010.3
20260506150827 24 242 0.0 0.0 0.00 0.00 0.00 91 1010.6
20260506150324 24 233 0.0 0.0 0.00 0.00 0.00 91 1010.0
20260506145821 24 233 1.6 1.6 0.00 0.00 0.00 91 1010.3
20260506145317 23 235 1.6 1.6 0.00 0.00 0.00 91 1010.3
20260506144815 23 223 0.0 1.6 0.00 0.00 0.00 92 1010.2
20260506144311 23 217 0.0 0.0 0.00 0.00 0.00 92 1010.1
20260506143810 23 217 0.0 1.6 0.00 0.00 0.00 92 1010.0
20260506143306 23 217 1.6 1.6 0.00 0.00 0.00 93 1010.1
20260506142804 23 212 0.0 0.0 0.00 0.00 0.00 93 1010.3
20260506142305 23 212 1.6 1.6 0.00 0.00 0.00 93 1010.3
20260506141800 23 236 0.0 0.0 0.00 0.00 0.00 93 1010.2
20260506141258 23 229 0.0 0.0 0.00 0.00 0.00 94 1010.1
20260506140755 23 227 3.2 3.2 0.00 0.00 0.00 94 1010.1
20260506140252 23 210 1.6 1.6 0.00 0.00 0.00 94 1010.1
20260506135749 23 242 1.6 1.6 0.00 0.00 0.00 94 1009.7
20260506135245 23 268 1.6 4.8 0.00 0.00 0.00 94 1009.8
20260506134742 23 236 0.0 0.0 0.00 0.00 0.00 94 1009.2
20260506134239 23 232 0.0 0.0 0.00 0.00 0.00 94 1009.3
20260506133736 23 230 1.6 1.6 0.00 0.00 0.00 94 1009.1
20260506133232 23 225 0.0 1.6 0.00 0.00 0.00 94 1009.0
20260506132729 23 240 3.2 4.8 0.00 0.00 0.00 94 1008.9
20260506132227 23 238 1.6 1.6 0.00 0.00 0.00 94 1008.9
20260506131725 23 238 0.0 1.6 0.00 0.00 0.00 94 1009.0
20260506131220 23 224 0.0 1.6 0.00 0.00 0.00 94 1008.7
20260506130717 23 234 3.2 3.2 0.00 0.00 0.00 94 1008.9
20260506130214 23 237 0.0 1.6 0.00 0.00 0.00 94 1008.8
20260506125712 23 232 1.6 1.6 0.00 0.00 0.00 93 1008.9
20260506125210 23 237 1.6 3.2 0.00 0.00 0.00 93 1008.6
20260506124708 23 214 0.0 1.6 0.00 0.00 0.00 93 1008.6
20260506124206 23 209 0.0 1.6 0.00 0.00 0.00 94 1008.8
20260506123703 23 209 1.6 1.6 0.00 0.00 0.00 95 1008.5
20260506123202 22 214 0.0 1.6 0.00 0.00 0.00 96 1008.5
20260506122658 22 229 1.6 1.6 0.00 0.00 0.00 96 1008.5
20260506122155 22 226 0.0 1.6 0.00 0.00 0.00 96 1008.8
20260506121653 22 226 1.6 1.6 0.00 0.00 0.00 96 1008.8
20260506121149 22 226 0.0 0.0 0.00 0.00 0.00 96 1008.6
20260506120647 22 226 0.0 0.0 0.00 0.00 0.00 96 1008.6
20260506120144 22 226 0.0 0.0 0.00 0.00 0.00 96 1008.6
20260506115643 22 226 0.0 0.0 0.00 0.00 0.00 96 1008.7
20260506115140 22 226 0.0 0.0 0.00 0.00 0.00 96 1008.6
20260506114637 22 226 0.0 0.0 0.00 0.00 0.00 96 1008.5
20260506114135 22 226 0.0 0.0 0.00 0.00 0.00 96 1008.4
20260506113634 22 226 0.0 0.0 0.00 0.00 0.00 96 1008.5
20260506113130 22 226 0.0 0.0 0.00 0.00 0.00 96 1008.5
20260506112626 22 226 0.0 0.0 0.00 0.00 0.00 96 1008.6
20260506112124 22 226 0.0 0.0 0.00 0.00 0.00 96 1008.6
20260506111622 22 226 0.0 0.0 0.00 0.00 0.00 96 1008.4
20260506111119 22 226 0.0 0.0 0.00 0.00 0.00 96 1008.5
20260506110617 22 226 0.0 0.0 0.00 0.00 0.00 96 1008.3
20260506110114 22 226 0.0 0.0 0.00 0.00 0.00 96 1008.4
20260506105610 22 226 0.0 0.0 0.00 0.00 0.00 96 1008.6
20260506105107 22 226 0.0 0.0 0.00 0.00 0.00 96 1008.5
20260506104606 22 226 0.0 0.0 0.00 0.00 0.00 96 1008.5
20260506104103 22 227 0.0 1.6 0.00 0.00 0.00 96 1008.5
20260506103600 22 226 0.0 0.0 0.00 0.00 0.00 96 1008.4
20260506103056 22 226 1.6 1.6 0.00 0.00 0.00 96 1008.4
20260506102555 22 227 1.6 1.6 0.00 0.00 0.00 96 1008.5
20260506102052 22 227 1.6 1.6 0.00 0.00 0.00 95 1008.3
20260506101548 22 222 1.6 1.6 0.00 0.00 0.00 95 1008.5
20260506101046 23 216 1.6 1.6 0.00 0.00 0.00 94 1008.3
20260506100544 23 202 1.6 1.6 0.00 0.00 0.00 94 1008.5
20260506100042 23 200 1.6 3.2 0.00 0.00 0.00 94 1008.2
20260506095540 23 224 1.6 1.6 0.00 0.00 0.00 93 1008.0
20260506095036 23 202 1.6 1.6 0.00 0.00 0.00 93 1007.9
20260506094534 23 204 0.0 0.0 0.00 0.00 0.00 93 1008.3
20260506094032 23 191 1.6 3.2 0.00 0.00 0.00 93 1008.2
20260506093530 23 180 1.6 1.6 0.00 0.00 0.00 93 1008.2
20260506093027 22 175 3.2 3.2 0.00 0.00 0.00 94 1008.0
20260506092525 22 229 1.6 1.6 0.00 0.00 0.00 94 1008.2
20260506092021 22 211 3.2 3.2 0.00 0.00 0.00 94 1008.0
20260506091520 22 269 4.8 8.0 0.00 0.00 0.00 95 1008.0
20260506091016 22 222 1.6 1.6 0.00 0.00 0.00 95 1008.2
20260506090514 22 182 3.2 3.2 0.00 0.00 0.00 96 1008.0
20260506090010 22 210 1.6 1.6 0.00 0.00 0.00 96 1007.8
20260506085507 22 270 1.6 1.6 0.00 0.00 0.00 96 1007.7
20260506085004 22 221 1.6 3.2 0.00 0.00 0.00 96 1008.2
20260506084501 22 238 4.8 4.8 0.00 0.00 0.00 96 1007.8
20260506083957 22 222 3.2 3.2 0.00 0.00 0.00 96 1007.9
20260506083454 22 224 0.0 0.0 0.00 0.00 0.00 96 1008.2
20260506082951 22 241 1.6 1.6 0.00 0.00 0.00 96 1008.0
20260506082448 22 235 0.0 0.0 0.00 0.00 0.00 95 1008.0
20260506081944 23 272 1.6 1.6 0.00 0.00 0.00 95 1007.7
20260506081443 23 231 0.0 0.0 0.00 0.00 0.00 95 1007.8
20260506080939 23 210 0.0 1.6 0.00 0.00 0.00 94 1007.7
20260506080436 23 244 3.2 4.8 0.00 0.00 0.00 93 1007.7
20260506073420 23 228 0.0 0.0 0.00 0.00 0.00 93 1008.3
20260506072918 23 230 0.0 0.0 0.00 0.00 0.00 93 1008.7
20260506072415 23 200 1.6 1.6 0.00 0.00 0.00 93 1008.3
20260506071912 23 159 4.8 4.8 0.00 0.00 0.00 93 1008.5
20260506071410 23 231 1.6 1.6 0.00 0.00 0.00 93 1008.4
20260506070907 23 89 3.2 8.0 0.00 0.00 0.00 93 1008.4
20260506070404 23 221 3.2 3.2 0.00 0.00 0.00 93 1008.8
20260506062341 23 238 1.6 1.6 0.00 0.00 0.00 93 1008.4
20260506061837 23 221 1.6 1.6 0.00 0.00 0.00 93 1008.5
20260506061333 23 238 1.6 1.6 0.00 0.00 0.00 93 1008.8
20260506060832 23 261 4.8 8.0 0.00 0.00 0.00 92 1008.6
20260506060330 23 77 3.2 3.2 0.00 0.00 0.00 92 1008.5
20260506051301 24 237 1.6 1.6 0.00 0.00 0.00 91 1008.7
20260506050759 24 208 1.6 1.6 0.00 0.00 0.00 90 1008.6
20260506050256 25 234 3.2 3.2 0.00 0.00 0.00 88 1008.5
20260506044747 25 205 1.6 3.2 0.00 0.00 0.00 88 1008.6
20260506044244 25 212 1.6 3.2 0.00 0.00 0.00 88 1008.6
20260506043741 24 217 1.6 3.2 0.00 0.00 0.00 91 1008.6
20260506043239 24 172 1.6 1.6 0.00 0.00 0.00 91 1008.6
20260506042737 24 179 3.2 4.8 0.00 0.00 0.00 91 1008.6
20260506042236 24 251 3.2 3.2 0.00 0.00 0.00 91 1008.4
20260506041734 24 234 0.0 0.0 0.00 0.00 0.00 91 1008.3
20260506041231 24 230 1.6 1.6 0.00 0.00 0.00 91 1008.5
20260506040728 24 250 1.6 1.6 0.00 0.00 0.00 91 1008.3
20260506040225 24 225 1.6 3.2 0.00 0.00 0.00 91 1008.4
20260506035721 24 230 1.6 3.2 0.00 0.00 0.00 91 1008.3
20260506035219 24 241 1.6 1.6 0.00 0.00 0.00 91 1008.4
20260506034715 24 250 1.6 3.2 0.00 0.00 0.00 91 1007.7
20260506034213 24 245 0.0 1.6 0.00 0.00 0.00 91 1008.2
20260506033710 24 232 1.6 1.6 0.00 0.00 0.00 91 1008.2
20260506033206 23 236 0.0 1.6 0.00 0.00 0.00 91 1007.8
20260506032703 23 244 0.0 1.6 0.00 0.00 0.00 91 1008.0
20260506032201 23 243 0.0 1.6 0.00 0.00 0.00 91 1007.9
20260506031657 23 238 0.0 0.0 0.00 0.00 0.00 91 1007.8
20260506031155 23 238 0.0 0.0 0.00 0.00 0.00 90 1007.5
20260506030653 23 239 0.0 0.0 0.00 0.00 0.00 89 1007.5
20260506030149 24 239 1.6 1.6 0.00 0.00 0.00 89 1007.5
20260506025646 24 229 0.0 0.0 0.00 0.00 0.00 87 1007.2
20260506025142 25 222 0.0 0.0 0.00 0.00 0.00 86 1007.2
20260506024640 25 209 0.0 1.6 0.00 0.00 0.00 85 1007.0
20260506024136 25 204 0.0 1.6 0.00 0.00 0.00 84 1007.1
20260506023633 25 207 0.0 1.6 0.00 0.00 0.00 85 1007.0
20260506023130 25 208 0.0 1.6 0.00 0.00 0.00 85 1007.2
20260506022627 23 209 1.6 1.6 0.00 0.00 0.00 89 1007.0
20260506022125 23 210 0.0 0.0 0.00 0.00 0.00 90 1006.9
20260506021622 23 210 0.0 0.0 0.00 0.00 0.00 90 1006.9
20260506021119 23 210 0.0 0.0 0.00 0.00 0.00 89 1006.8
20260506020616 23 210 0.0 0.0 0.00 0.00 0.00 89 1006.6
20260506020114 23 210 0.0 0.0 0.00 0.00 0.00 88 1006.5
20260506015611 24 210 0.0 0.0 0.00 0.00 0.00 88 1006.3
20260506015108 24 210 0.0 0.0 0.00 0.00 0.00 87 1006.5
20260506014606 25 210 0.0 0.0 0.00 0.00 0.00 86 1006.2
20260506014101 25 210 0.0 0.0 0.00 0.00 0.00 86 1006.3
20260506013600 25 210 0.0 0.0 0.00 0.00 0.00 85 1006.1
20260506013056 25 210 0.0 0.0 0.00 0.00 0.00 84 1005.9
20260506012552 25 210 0.0 1.6 0.00 0.00 0.00 83 1006.0
20260506012049 26 210 1.6 1.6 0.00 0.00 0.00 82 1006.1
20260506011547 26 209 0.0 1.6 0.00 0.00 0.00 81 1006.0
20260506011042 26 211 1.6 1.6 0.00 0.00 0.00 80 1006.0
20260506010537 27 216 0.0 1.6 0.00 0.00 0.00 78 1006.1
20260506010033 27 215 0.0 1.6 0.00 0.00 0.00 77 1006.1
20260506005530 27 220 0.0 1.6 0.00 0.00 0.00 76 1006.1
20260506005026 26 234 0.0 0.0 0.00 0.00 0.00 78 1006.1
20260506004523 27 238 0.0 0.0 0.00 0.00 0.00 78 1006.1
20260506004020 27 237 1.6 1.6 0.00 0.00 0.00 78 1005.9
20260506003516 27 226 0.0 0.0 0.00 0.00 0.00 77 1005.9
20260506003012 27 225 0.0 1.6 0.00 0.00 0.00 77 1005.8